Flag for Germany Weather past 2 weeks in Mühlhausen/Thüringen, Thuringia, Germany

Now
61 °F

Overcast.


Feels Like: 61 °F
Forecast: 44 / 56 °F
Wind: 2 mph from Southwest

Location: Erfurt-Bindersleben

Current Time: May 25, 2015 at 6:21:10 PM

Latest Report: May 25, 2015 at 6:00 PM


Visibility: 13 mi

Pressure: 29.89 "Hg

Humidity: 66%

Dew point: 49 °F

Location of Mühlhausen/ThüringenLocation

Historic Weather in Mühlhausen/Thüringen — Graph

°F

Mühlhausen/Thüringen temperature yesterday

Maximum temperature yesterday: 66 °F (at 5:00 PM)
Minimum temperature yesterday: 51 °F (at 7:00 AM)
Average temperature yesterday: 58 °F

Past Weeks' High & Low Weather Summary

 TemperatureHumidityPressure
High80 °F (May 12, 3:00 PM)94% (May 16, 7:00 AM)30.38 "Hg (May 16, 7:00 AM)
Low35 °F (May 22, 5:00 AM)30% (May 19, 3:00 PM)29.65 "Hg (May 19, 5:00 AM)
Average55 °F62%30.07 "Hg
* Reported May 10 5:00 PM — May 25 5:00 PM, Mühlhausen/Thüringen, Weather by CustomWeather, © 2015

Note: Actual official high and low records may vary slightly from our data, if they occured in-between our weather recording intervals... More about our weather records

Advertising

Mühlhausen/Thüringen weather history for previous 24 hours

 ConditionsComfort  
Time TempWeatherWind HumidityBarometerVisibility
5:00 PM
Mon, May 25
60 °FLight rain. Overcast.1 mph69%29.90 "Hg12 mi
4:00 PM60 °FLight rain. Overcast.3 mph66%29.90 "Hg12 mi
3:00 PM63 °FOvercast.3 mph54%29.90 "Hg17 mi
2:00 PM62 °FOvercast.3 mph52%29.91 "Hg19 mi
1:00 PM61 °FOvercast.2 mph50%29.92 "Hg19 mi
12:00 PM61 °FOvercast.2 mph60%29.93 "Hg22 mi
11:00 AM61 °FOvercast.2 mph67%29.94 "Hg19 mi
10:00 AM60 °FOvercast.2 mph65%29.96 "Hg19 mi
9:00 AM58 °FPartly sunny.2 mph70%29.96 "Hg16 mi
8:00 AM56 °FOvercast.2 mph88%29.97 "Hg19 mi
7:00 AM54 °FLight rain. Overcast.3 mph90%29.97 "Hg19 mi
6:00 AM54 °FLight rain. Overcast.2 mph89%29.98 "Hg19 mi
5:00 AM54 °FOvercast.2 mph86%29.97 "Hg31 mi
4:00 AM54 °FOvercast.3 mph85%29.98 "Hg37 mi
3:00 AM54 °FOvercast.3 mph83%29.99 "Hg37 mi
2:00 AM55 °FOvercast.3 mph81%30.00 "Hg37 mi
1:00 AM55 °FOvercast.3 mph83%30.01 "Hg37 mi
12:00 AM57 °FOvercast.3 mph79%30.02 "Hg37 mi
11:00 PM
Sun, May 24
58 °FOvercast.3 mph75%30.02 "Hg37 mi
10:00 PM60 °FOvercast.2 mph69%30.02 "Hg37 mi
9:00 PM62 °FOvercast.1 mph64%30.02 "Hg43 mi
8:00 PM62 °FSprinkles. Overcast.1 mph63%30.02 "Hg31 mi
7:00 PM64 °FOvercast.3 mph60%30.02 "Hg28 mi
6:00 PM65 °FOvercast.2 mph60%30.03 "Hg22 mi
Weather by CustomWeather, © 2015

See weather overviewHow to use our weather pages